Location: Asheville, NC
(35.6000°N, 82.5500°W)
Time: 07:05:28
(UTC-05:00)

Vanguard 2 - Pass Details

Date: 09 February 2018
Orbit: 553 x 2939 km, 32.9° (Epoch: 18 February)

Event Time Altitude Azimuth Distance (km) Brightness Sun altitude
Rises 01:00:13 0° 270° (W) 2,712 - -68.8°
Reaches altitude 10° 01:02:20 10° 265° (W) 1,833 - -68.7°
Maximum altitude 01:06:14 53° 188° (S) 760 - -68.5°
Drops below altitude 10° 01:11:11 10° 112° (ESE) 2,330 - -68.2°
Sets 01:14:12 0° 108° (ESE) 3,551 - -68.0°
